Date String (YYYY-MM-DD hh:mm:ss) UTC,Instrument flags,Ambient pressure (hPa),Sample flow (lpm),Bypass flow (lpm),Sample temperature (°C),Ambient temperature (°C),ASC tube jacket temperature (°C),LED temperature (°C),Box temperature (°C),Sample RH (%),Span deviation,Mass concentration (μg/m³),Mass concentration (μg/m³),Mass concentration (μg/m³)
DateTimeUTC,F1_M11,P_M11,Q1_M11,Q2_M11,T1_M11,T2_M11,T3_M11,T4_M11,T5_M11,U1_M11,ZSPAN_M11,X0_M11,X2_M11,X1_M11
2022-07-27 23:00:00,,0827.3,5.00,0.00,31.0,28.4,00.0,39.1,32.0,33.8,0000.0,0016.39,0008.01,0007.11
2022-07-27 23:01:00,,0827.2,4.99,0.00,31.0,28.0,00.0,39.1,32.0,33.9,0000.0,0015.97,0008.00,0007.11
2022-07-27 23:02:00,,0827.2,5.01,0.00,30.9,27.5,00.0,39.0,31.9,34.0,0000.0,0015.46,0007.98,0007.10
2022-07-27 23:03:00,,0827.2,4.99,0.00,30.9,27.4,00.0,39.1,31.8,33.7,0000.0,0014.94,0008.04,0007.11
2022-07-27 23:04:00,,0827.2,5.02,0.00,30.8,27.5,00.0,39.1,31.7,34.9,0000.0,0015.56,0008.07,0007.12
2022-07-27 23:05:00,,0827.1,5.00,0.00,30.8,27.6,00.0,39.1,31.7,35.2,0000.0,0017.12,0008.05,0007.11
2022-07-27 23:06:00,,0827.2,4.99,0.00,31.0,27.8,00.0,39.1,31.9,34.8,0000.0,0018.50,0008.08,0007.10
2022-07-27 23:07:00,,0827.2,5.00,0.00,31.1,28.0,00.0,39.1,32.0,33.8,0000.0,0018.03,0008.07,0007.10
2022-07-27 23:08:00,,0827.2,5.00,0.00,31.2,28.3,00.0,39.1,32.1,33.5,0000.0,0017.41,0008.04,0007.10
2022-07-27 23:09:00,,0827.2,5.00,0.00,31.3,28.5,00.0,39.1,32.1,33.6,0000.0,0017.35,0008.04,0007.10
2022-07-27 23:10:00,,0827.2,5.00,0.00,31.3,28.4,00.0,39.2,32.1,33.2,0000.0,0016.67,0008.00,0007.09
2022-07-27 23:11:00,,0827.2,5.00,0.00,31.3,27.8,00.0,39.2,32.0,33.0,0000.0,0016.21,0007.96,0007.08
2022-07-27 23:12:00,,0827.2,5.00,0.00,31.2,27.5,00.0,39.2,32.0,33.3,0000.0,0016.26,0007.95,0007.09
2022-07-27 23:13:00,,0827.2,5.01,0.00,31.1,27.4,00.0,39.2,31.8,33.6,0000.0,0017.07,0007.97,0007.11
2022-07-27 23:14:00,,0827.2,4.99,0.00,31.0,27.6,00.0,39.2,31.7,33.6,0000.0,0017.11,0007.96,0007.12
2022-07-27 23:15:00,,0827.2,5.01,0.00,31.0,27.8,00.0,39.2,31.8,34.0,0000.0,0016.23,0007.96,0007.11
2022-07-27 23:16:00,,0827.2,5.00,0.00,31.0,28.0,00.0,39.2,31.9,34.4,0000.0,0014.51,0007.97,0007.12
2022-07-27 23:17:00,,0827.4,5.00,0.00,30.9,28.2,00.0,39.2,31.9,34.1,0000.0,0013.45,0008.02,0007.15
2022-07-27 23:18:00,,0827.4,5.00,0.00,30.9,28.3,00.0,39.2,32.0,33.8,0000.0,0013.44,0008.07,0007.17
2022-07-27 23:19:00,,0827.4,5.01,0.00,30.9,28.1,00.0,39.2,32.0,34.1,0000.0,0013.92,0008.10,0007.19
2022-07-27 23:20:00,,0827.2,4.99,0.00,30.8,27.5,00.0,39.2,31.9,34.5,0000.0,0014.47,0008.14,0007.20
2022-07-27 23:21:00,,0827.3,5.01,0.00,30.8,27.3,00.0,39.1,31.8,34.4,0000.0,0015.12,0008.18,0007.22
2022-07-27 23:22:00,,0827.3,5.00,0.00,30.7,27.4,00.0,39.1,31.7,34.3,0000.0,0015.24,0008.22,0007.23
2022-07-27 23:23:00,,0827.3,4.99,0.00,30.6,27.6,00.0,39.1,31.6,34.8,0000.0,0015.43,0008.23,0007.24
2022-07-27 23:24:00,,0827.3,5.00,0.00,30.6,27.8,00.0,39.1,31.7,35.5,0000.0,0014.76,0008.20,0007.23
2022-07-27 23:25:00,,0827.4,4.99,0.00,30.8,28.0,00.0,39.1,32.0,34.6,0000.0,0014.46,0008.17,0007.18
2022-07-27 23:26:00,,0827.4,5.01,0.00,31.1,28.2,00.0,39.1,32.1,33.8,0000.0,0014.81,0008.14,0007.14
2022-07-27 23:27:00,,0827.4,4.99,0.00,31.2,28.4,00.0,39.1,32.1,32.8,0000.0,0014.92,0008.07,0007.12
2022-07-27 23:28:00,,0827.4,5.00,0.00,31.2,28.4,00.0,39.1,32.1,33.0,0000.0,0015.20,0007.98,0007.08
2022-07-27 23:29:00,,0827.4,5.00,0.00,31.2,27.9,00.0,39.1,32.0,33.5,0000.0,0014.74,0007.87,0007.05
2022-07-27 23:30:00,,0827.4,5.00,0.00,31.2,27.5,00.0,39.1,31.9,33.1,0000.0,0014.73,0007.83,0007.02
2022-07-27 23:31:00,,0827.4,5.01,0.00,31.1,27.4,00.0,39.1,31.9,33.3,0000.0,0014.47,0007.74,0006.97
2022-07-27 23:32:00,,0827.4,4.99,0.00,31.0,27.5,00.0,39.1,31.8,32.9,0000.0,0013.88,0007.72,0006.92
2022-07-27 23:33:00,,0827.3,5.00,0.00,30.9,27.7,00.0,39.1,31.7,33.6,0000.0,0014.08,0007.71,0006.89
2022-07-27 23:34:00,,0827.4,5.00,0.00,30.9,27.9,00.0,39.2,31.8,33.1,0000.0,0014.42,0007.69,0006.84
2022-07-27 23:35:00,,0827.4,5.00,0.00,30.9,28.1,00.0,39.2,31.9,33.1,0000.0,0014.51,0007.67,0006.81
2022-07-27 23:36:00,,0827.4,5.00,0.00,30.9,28.3,00.0,39.2,32.0,32.8,0000.0,0014.52,0007.65,0006.82
2022-07-27 23:37:00,,0827.4,5.01,0.00,30.9,28.5,00.0,39.2,32.0,33.1,0000.0,0014.12,0007.60,0006.82
2022-07-27 23:38:00,,0827.4,5.00,0.00,30.9,28.6,00.0,39.2,32.1,33.4,0000.0,0014.48,0007.62,0006.81
2022-07-27 23:39:00,,0827.4,5.00,0.00,30.9,28.1,00.0,39.2,32.0,32.4,0000.0,0014.13,0007.64,0006.80
2022-07-27 23:40:00,,0827.4,5.00,0.00,30.8,27.6,00.0,39.1,31.9,32.3,0000.0,0014.34,0007.68,0006.80
2022-07-27 23:41:00,,0827.4,5.00,0.00,30.7,27.5,00.0,39.1,31.8,32.3,0000.0,0013.99,0007.70,0006.79
2022-07-27 23:42:00,,0827.4,5.00,0.00,30.6,27.5,00.0,39.1,31.7,32.5,0000.0,0014.01,0007.75,0006.81
2022-07-27 23:43:00,,0827.4,4.99,0.00,30.6,27.7,00.0,39.1,31.7,33.3,0000.0,0014.37,0007.77,0006.82
2022-07-27 23:44:00,,0827.4,5.01,0.00,30.5,27.9,00.0,39.1,31.7,33.8,0000.0,0014.84,0007.76,0006.81
2022-07-27 23:45:00,,0827.4,5.00,0.00,30.5,28.1,00.0,39.1,31.8,33.1,0000.0,0014.48,0007.74,0006.82
2022-07-27 23:46:00,,0827.4,5.00,0.00,30.5,28.3,00.0,39.1,31.9,33.5,0000.0,0014.34,0007.71,0006.82
2022-07-27 23:47:00,,0827.4,5.00,0.00,30.6,28.4,00.0,39.1,31.9,33.9,0000.0,0014.24,0007.74,0006.82
2022-07-27 23:48:00,,0827.4,5.01,0.00,30.5,28.0,00.0,39.0,31.9,34.0,0000.0,0014.66,0007.78,0006.82
2022-07-27 23:49:00,,0827.4,5.00,0.00,30.4,27.5,00.0,39.0,31.8,33.4,0000.0,0014.38,0007.75,0006.82
2022-07-27 23:50:00,,0827.4,5.00,0.00,30.4,27.4,00.0,38.9,31.7,33.2,0000.0,0014.57,0007.74,0006.81
2022-07-27 23:51:00,,0827.4,5.00,0.00,30.3,27.5,00.0,38.9,31.6,33.7,0000.0,0014.48,0007.74,0006.81
2022-07-27 23:52:00,,0827.4,5.01,0.00,30.3,27.6,00.0,38.9,31.6,33.6,0000.0,0014.53,0007.75,0006.81
2022-07-27 23:53:00,,0827.4,4.99,0.00,30.2,27.8,00.0,38.9,31.7,33.4,0000.0,0014.31,0007.71,0006.79
2022-07-27 23:54:00,,0827.4,4.99,0.00,30.2,28.0,00.0,38.9,31.7,33.3,0000.0,0014.10,0007.66,0006.79
2022-07-27 23:55:00,,0827.4,5.00,0.00,30.3,28.2,00.0,38.9,31.8,33.5,0000.0,0014.34,0007.67,0006.80
2022-07-27 23:56:00,,0827.4,5.00,0.00,30.3,28.4,00.0,38.8,31.8,33.7,0000.0,0013.92,0007.67,0006.84
2022-07-27 23:57:00,,0827.3,5.00,0.00,30.3,27.9,00.0,38.8,31.8,33.3,0000.0,0013.97,0007.72,0006.88
2022-07-27 23:58:00,,0827.4,5.01,0.00,30.2,27.4,00.0,38.8,31.7,33.1,0000.0,0014.01,0007.72,0006.91
2022-07-27 23:59:00,,0827.4,5.00,0.00,30.1,27.3,00.0,38.7,31.6,33.1,0000.0,0014.29,0007.74,0006.95
